Showing default

GSAT 17, 42815

Orbit data source: Space-Track

GSAT 17, 42815 is a payload satellite owned by ISRO (IN) in GEO that was launched on Wed, 28 Jun 2017 UTC via an ARIANE 5ECA launch vehicle from the French Guiana (FRGUI). Payload-class satellites include a variety of spacecraft equipped with specific instruments for various scientific and technological missions. These include communications satellites like Starlink; space stations such as the ISS; scientific satellites like the Hubble; Earth observation satellites from companies like Planet Labs, Umbra, and HawkEye 360; GPS; miniature CubeSats for education and research; and military/defense satellites.

Not visible in the next 10 days
Identifier
42815, 2017-040B
Orbit
GEO
Country
Flag of ININ / IND
Related business
Manufacturer
ISRO SAC/Banga
Mission
Operational Civil Communications
Bus & Motor
I3K, ISRO LAM
Mass
3,477 kg wet, ~1,400 kg dry
Launch date (UTC)
2017-06-28 (8 years ago)
Launch vehicle
ARIANE 5ECA
Launch site
French Guiana (FRGUI)
Object type
Payload
Rocket body
Debris
Shape & HBR
Box + 2 Pan, 10.0 m
Radar Cross Section
15.081 m², Large (>1 m²)

Expand to show TLE details & history
Last TLE update: 7 hours ago

TLE from 7 hours ago
0 GSAT 17
1 42815U 17040B   25296.06763589 -.00000248  00000-0  00000+0 0  9994
2 42815   0.0862  88.9542 0006162 165.7522 254.9055  1.00273460 30418
Epoch: 2025-10-23T01:37Z
TLE epoch observation values (Epoch: 2025-10-23T01:37:23.740Z)
Latitude
0.04522°
Longitude
93.42876°
Altitude
35,792.284 km
Speed
3.074 km/s
True Right ascension
09h 58m 02s
True Declination
0° 02' 43"
Sunlit
Object was in daylight at epoch
Visualization orbit readout
Latitude
Unknown
Longitude
Unknown
Altitude
Unknown
Speed
Unknown
Apparent Right ascension
Unknown
Apparent Declination
Unknown
Sunlit
N/A
Visualization observer readout
Local Sidereal Time
03:58:56
Azimuth
Unknown
Elevation
Unknown
Doppler factor
Unknown
Orbital elements
Apogee altitude
35,813.178 km
Perigee altitude
35,761.214 km
Semi-major axis
42,165.333 km
Eccentricity
0.00062
Inclination
0.0862°
RAAN
88.9542°
Arg. of periapsis
165.7522°
True anomaly
254.83734°
Mean anomaly
254.9055°
Eccentric anomaly
254.87142°
Mean motion
0.25067 °/min
Orbital period
1,436.13 mins
BSTAR
0
Loading maneuver chart data...
Computing Atmospheric mass density...
Loading historical data...
Loading historical data...
Loading historical data...
Loading historical data...
Loading historical data...
Loading historical data...
Loading historical data...
Other satellites on launch #40 in the year 2017 (2017-06-28 UTC)

Documentation

Showing up to 5 results
|